CAL7770 RJTT-RJOB

Flight info

Callsign CAL7770
Flight time 0h 57m
Altitude 38000
Route NINOX Y28 IPLES Y207 ARASI Y20 WAKIT Y205 OYE
Aircraft A21N/M-SDE1E2E3FGHIJ1J3J4J7M3P2RWY/LB1D1

Departure

Time 2026-05-01 10:11
Airport Tokyo Haneda International Airport (RJTT)

Arrival

Time 2026-05-01 11:09
Airport Okayama Momotaro Airport (RJOB)
Time Latitude Longitude Altitude Speed Heading
2026-05-01 10:05 35.55302 139.79072 27 ft 0 kts 60°
2026-05-01 10:06 35.55309 139.79087 27 ft 5 kts 60°
2026-05-01 10:06 35.55353 139.79132 27 ft 10 kts
2026-05-01 10:07 35.55432 139.79094 26 ft 15 kts 330°
2026-05-01 10:07 35.55534 139.79022 30 ft 19 kts 330°
2026-05-01 10:07 35.55658 139.78934 27 ft 22 kts 330°
2026-05-01 10:07 35.55803 139.78831 26 ft 26 kts 330°
2026-05-01 10:08 35.56084 139.78627 27 ft 24 kts 332°
2026-05-01 10:08 35.56235 139.78523 26 ft 26 kts 328°
2026-05-01 10:08 35.56367 139.78428 29 ft 21 kts 334°
2026-05-01 10:09 35.56401 139.78293 28 ft 19 kts 242°
2026-05-01 10:09 35.56401 139.78166 28 ft 14 kts 319°
2026-05-01 10:09 35.56483 139.78108 28 ft 14 kts 330°
2026-05-01 10:09 35.56547 139.78027 31 ft 13 kts 305°
2026-05-01 10:10 35.56599 139.77938 34 ft 13 kts 310°
2026-05-01 10:10 35.56648 139.77852 36 ft 12 kts 306°
2026-05-01 10:10 35.56709 139.77688 43 ft 10 kts 251°
2026-05-01 10:11 35.56626 139.77606 40 ft 40 kts 214°
2026-05-01 10:11 35.56180 139.77224 34 ft 113 kts 214°
2026-05-01 10:11 35.55377 139.76535 34 ft 165 kts 214°
2026-05-01 10:11 35.54471 139.75745 832 ft 152 kts 214°
2026-05-01 10:12 35.53550 139.75209 1783 ft 148 kts 199°
2026-05-01 10:12 35.52480 139.75144 2581 ft 163 kts 187°
2026-05-01 10:12 35.49979 139.75537 3766 ft 203 kts 183°
2026-05-01 10:13 35.48489 139.75715 4373 ft 226 kts 183°
2026-05-01 10:13 35.46859 139.75894 5144 ft 242 kts 182°
2026-05-01 10:13 35.45162 139.76085 6191 ft 247 kts 182°
2026-05-01 10:14 35.41733 139.76143 8224 ft 253 kts 187°
2026-05-01 10:14 35.39951 139.76146 9274 ft 257 kts 186°
2026-05-01 10:14 35.38123 139.76148 10022 ft 272 kts 186°
2026-05-01 10:14 35.36138 139.76196 10425 ft 299 kts 181°
2026-05-01 10:15 35.33999 139.76588 10923 ft 321 kts 173°
2026-05-01 10:15 35.31820 139.77352 11807 ft 328 kts 169°
2026-05-01 10:15 35.29617 139.78151 12697 ft 333 kts 170°
2026-05-01 10:15 35.27410 139.78937 13540 ft 337 kts 170°
2026-05-01 10:16 35.25154 139.79736 14397 ft 338 kts 171°
2026-05-01 10:16 35.22865 139.80172 15282 ft 329 kts 186°
2026-05-01 10:16 35.18635 139.78551 16974 ft 320 kts 217°
2026-05-01 10:17 35.16994 139.76705 17722 ft 324 kts 227°
2026-05-01 10:17 35.13961 139.72590 19162 ft 327 kts 230°
2026-05-01 10:17 35.12770 139.70252 19862 ft 333 kts 242°
2026-05-01 10:18 35.11936 139.64566 21165 ft 358 kts 267°
2026-05-01 10:18 35.12479 139.61526 21795 ft 377 kts 281°
2026-05-01 10:18 35.13478 139.58528 22399 ft 384 kts 283°
2026-05-01 10:19 35.14550 139.55522 23025 ft 392 kts 287°
2026-05-01 10:19 35.15995 139.52631 23546 ft 406 kts 296°
2026-05-01 10:19 35.17863 139.49979 24046 ft 421 kts 306°
2026-05-01 10:20 35.22344 139.45270 25035 ft 430 kts 310°
2026-05-01 10:20 35.24634 139.42888 25530 ft 433 kts 310°
2026-05-01 10:20 35.26926 139.40491 25979 ft 435 kts 311°
2026-05-01 10:20 35.29238 139.38071 26436 ft 438 kts 311°
2026-05-01 10:21 35.31556 139.35642 26882 ft 440 kts 311°
2026-05-01 10:21 35.36039 139.30943 27678 ft 446 kts 311°
2026-05-01 10:21 35.38403 139.28464 28060 ft 449 kts 311°
2026-05-01 10:22 35.43143 139.23492 28758 ft 454 kts 311°
2026-05-01 10:22 35.47295 139.17826 29479 ft 440 kts 292°
2026-05-01 10:23 35.48561 139.14462 29835 ft 431 kts 281°
2026-05-01 10:23 35.49390 139.07340 30416 ft 419 kts 261°
2026-05-01 10:23 35.49221 139.04223 30795 ft 419 kts 261°
2026-05-01 10:24 35.48861 138.97081 31450 ft 416 kts 262°
2026-05-01 10:24 35.48513 138.90004 31468 ft 415 kts 262°
2026-05-01 10:25 35.47807 138.75896 31483 ft 414 kts 262°
2026-05-01 10:26 35.47449 138.68904 31489 ft 413 kts 262°
2026-05-01 10:27 35.46717 138.54882 31504 ft 413 kts 262°
2026-05-01 10:28 35.46155 138.44325 31528 ft 413 kts 262°
2026-05-01 10:28 35.45586 138.33847 31537 ft 412 kts 262°
2026-05-01 10:29 35.45011 138.23351 31553 ft 410 kts 262°
2026-05-01 10:30 35.44233 138.09488 31572 ft 411 kts 263°
2026-05-01 10:31 35.43434 137.95598 31590 ft 409 kts 263°
2026-05-01 10:32 35.42825 137.85176 31607 ft 408 kts 263°
2026-05-01 10:33 35.41927 137.71360 31617 ft 407 kts 262°
2026-05-01 10:34 35.41127 137.61015 31627 ft 405 kts 262°
2026-05-01 10:34 35.40584 137.54141 31619 ft 404 kts 260°
2026-05-01 10:35 35.39349 137.43974 31625 ft 404 kts 259°
2026-05-01 10:35 35.38520 137.37171 31622 ft 404 kts 259°
2026-05-01 10:36 35.37305 137.26962 31630 ft 404 kts 259°
2026-05-01 10:37 35.36492 137.20159 31632 ft 403 kts 259°
2026-05-01 10:37 35.35274 137.10021 31623 ft 403 kts 259°
2026-05-01 10:38 35.34454 137.03243 31627 ft 402 kts 259°
2026-05-01 10:38 35.33628 136.96480 32258 ft 404 kts 261°
2026-05-01 10:39 35.33187 136.92997 31909 ft 422 kts 262°
2026-05-01 10:39 35.32747 136.89464 31606 ft 426 kts 262°
2026-05-01 10:39 35.31871 136.82320 31611 ft 423 kts 262°
2026-05-01 10:40 35.30997 136.75205 31612 ft 422 kts 262°
2026-05-01 10:40 35.30122 136.68113 31610 ft 421 kts 262°
2026-05-01 10:41 35.29250 136.61092 31616 ft 420 kts 263°
2026-05-01 10:42 35.27928 136.50523 31614 ft 417 kts 263°
2026-05-01 10:42 35.27044 136.43502 31603 ft 417 kts 263°
2026-05-01 10:43 35.26156 136.36495 31610 ft 416 kts 263°
2026-05-01 10:43 35.25273 136.29539 31615 ft 417 kts 263°
2026-05-01 10:44 35.24376 136.22535 31632 ft 417 kts 263°
2026-05-01 10:44 35.23464 136.15511 31640 ft 418 kts 263°
2026-05-01 10:45 35.22439 136.08514 31648 ft 418 kts 263°
2026-05-01 10:45 35.21406 136.01563 31654 ft 418 kts 263°
2026-05-01 10:46 35.20374 135.94563 31663 ft 418 kts 263°
2026-05-01 10:46 35.19341 135.87564 31658 ft 418 kts 263°
2026-05-01 10:47 35.18314 135.80628 31399 ft 416 kts 263°
2026-05-01 10:47 35.17782 135.77154 31150 ft 416 kts 263°
2026-05-01 10:47 35.17202 135.73686 30915 ft 417 kts 262°
2026-05-01 10:47 35.16608 135.70229 30675 ft 416 kts 263°
2026-05-01 10:48 35.16014 135.66781 30437 ft 413 kts 263°
2026-05-01 10:48 35.15427 135.63352 30054 ft 412 kts 263°
2026-05-01 10:48 35.14845 135.59939 29438 ft 408 kts 263°
2026-05-01 10:48 35.14272 135.56580 28876 ft 399 kts 264°
2026-05-01 10:49 35.13719 135.53341 28346 ft 390 kts 264°
2026-05-01 10:49 35.13172 135.50135 27817 ft 381 kts 265°
2026-05-01 10:49 35.12638 135.47000 27299 ft 373 kts 265°
2026-05-01 10:49 35.12114 135.43937 26799 ft 365 kts 265°
2026-05-01 10:50 35.11600 135.40931 26301 ft 357 kts 266°
2026-05-01 10:50 35.11098 135.37990 25804 ft 350 kts 266°
2026-05-01 10:50 35.10606 135.35110 25331 ft 344 kts 266°
2026-05-01 10:50 35.10121 135.32269 24854 ft 340 kts 267°
2026-05-01 10:51 35.09646 135.29482 24385 ft 340 kts 267°
2026-05-01 10:51 35.09163 135.26663 23887 ft 337 kts 268°
2026-05-01 10:51 35.08684 135.23878 23424 ft 333 kts 268°
2026-05-01 10:51 35.08209 135.21114 22892 ft 332 kts 268°
2026-05-01 10:52 35.07739 135.18366 22423 ft 330 kts 268°
2026-05-01 10:52 35.07271 135.15630 21945 ft 328 kts 268°
2026-05-01 10:52 35.06806 135.12906 21479 ft 327 kts 268°
2026-05-01 10:52 35.06341 135.10199 21010 ft 325 kts 268°
2026-05-01 10:53 35.05882 135.07540 20528 ft 323 kts 267°
2026-05-01 10:53 35.05440 135.04989 20096 ft 323 kts 267°
2026-05-01 10:53 35.04977 135.02317 19615 ft 320 kts 267°
2026-05-01 10:53 35.04517 134.99666 19147 ft 319 kts 267°
2026-05-01 10:54 35.04059 134.97022 18672 ft 317 kts 266°
2026-05-01 10:54 35.03602 134.94387 18199 ft 317 kts 266°
2026-05-01 10:54 35.03076 134.91770 17686 ft 318 kts 263°
2026-05-01 10:54 35.02429 134.89191 17216 ft 318 kts 261°
2026-05-01 10:55 35.01771 134.86618 16727 ft 317 kts 261°
2026-05-01 10:55 35.01130 134.84087 16267 ft 316 kts 261°
2026-05-01 10:55 35.00481 134.81532 15796 ft 316 kts 261°
2026-05-01 10:55 34.99828 134.78973 15331 ft 315 kts 261°
2026-05-01 10:56 34.99179 134.76420 14844 ft 314 kts 260°
2026-05-01 10:56 34.98533 134.73886 14375 ft 313 kts 260°
2026-05-01 10:56 34.97888 134.71359 13908 ft 312 kts 260°
2026-05-01 10:56 34.97248 134.68838 13437 ft 310 kts 259°
2026-05-01 10:57 34.96601 134.66296 13094 ft 327 kts 259°
2026-05-01 10:57 34.95922 134.63613 12696 ft 343 kts 259°
2026-05-01 10:57 34.95203 134.60821 12168 ft 345 kts 259°
2026-05-01 10:57 34.94480 134.58037 11668 ft 343 kts 259°
2026-05-01 10:58 34.93768 134.55300 11161 ft 336 kts 259°
2026-05-01 10:58 34.93069 134.52617 10667 ft 327 kts 259°
2026-05-01 10:58 34.92392 134.50024 10380 ft 313 kts 259°
2026-05-01 10:58 34.91748 134.47560 10245 ft 297 kts 259°
2026-05-01 10:59 34.91140 134.45220 10118 ft 282 kts 260°
2026-05-01 10:59 34.90564 134.42994 9968 ft 270 kts 260°
2026-05-01 10:59 34.90006 134.40829 9627 ft 266 kts 261°
2026-05-01 10:59 34.89466 134.38716 9218 ft 263 kts 261°
2026-05-01 11:00 34.88932 134.36623 8857 ft 255 kts 260°
2026-05-01 11:00 34.88406 134.34584 8483 ft 251 kts 261°
2026-05-01 11:00 34.87881 134.32567 8117 ft 247 kts 261°
2026-05-01 11:00 34.87364 134.30594 7759 ft 241 kts 261°
2026-05-01 11:01 34.86864 134.28700 7426 ft 230 kts 262°
2026-05-01 11:01 34.86384 134.26853 7086 ft 229 kts 262°
2026-05-01 11:01 34.85911 134.25005 6748 ft 228 kts 261°
2026-05-01 11:01 34.85442 134.23202 6411 ft 225 kts 262°
2026-05-01 11:02 34.84975 134.21390 6080 ft 224 kts 261°
2026-05-01 11:02 34.84510 134.19584 5732 ft 221 kts 261°
2026-05-01 11:02 34.84053 134.17799 5397 ft 222 kts 261°
2026-05-01 11:02 34.83692 134.15983 5050 ft 218 kts 270°
2026-05-01 11:03 34.83744 134.14193 4714 ft 207 kts 284°
2026-05-01 11:03 34.84106 134.12513 4411 ft 206 kts 288°
2026-05-01 11:03 34.84477 134.10832 4084 ft 207 kts 287°
2026-05-01 11:03 34.84831 134.09163 3744 ft 206 kts 287°
2026-05-01 11:04 34.85181 134.07477 3412 ft 205 kts 285°
2026-05-01 11:04 34.85268 134.05756 3083 ft 204 kts 265°
2026-05-01 11:04 34.84769 134.03973 3020 ft 234 kts 246°
2026-05-01 11:04 34.83943 134.02325 3021 ft 221 kts 245°
2026-05-01 11:05 34.83160 134.00784 3003 ft 205 kts 246°
2026-05-01 11:05 34.82464 133.99417 2989 ft 177 kts 248°
2026-05-01 11:05 34.81813 133.98087 2952 ft 180 kts 248°
2026-05-01 11:05 34.81190 133.96875 2840 ft 160 kts 248°
2026-05-01 11:06 34.80644 133.95795 2633 ft 138 kts 250°
2026-05-01 11:06 34.80186 133.94865 2356 ft 123 kts 249°
2026-05-01 11:06 34.79758 133.93987 2084 ft 121 kts 250°
2026-05-01 11:07 34.78939 133.92217 1708 ft 120 kts 249°
2026-05-01 11:07 34.78528 133.91319 1518 ft 123 kts 247°
2026-05-01 11:07 34.78119 133.90396 1426 ft 124 kts 244°
2026-05-01 11:07 34.77667 133.89523 1267 ft 120 kts 239°
2026-05-01 11:08 34.77250 133.88688 1004 ft 113 kts 240°
2026-05-01 11:08 34.76832 133.87837 1008 ft 122 kts 240°
2026-05-01 11:08 34.75944 133.86069 814 ft 107 kts 240°
2026-05-01 11:09 34.75658 133.85477 809 ft 60 kts 239°
2026-05-01 11:09 34.75500 133.85149 810 ft 24 kts 243°
2026-05-01 11:09 34.75565 133.85011 814 ft 22 kts 341°
2026-05-01 11:10 34.75743 133.85256 812 ft 20 kts 60°
2026-05-01 11:10 34.75808 133.85390 808 ft 17 kts 57°
2026-05-01 11:10 34.75877 133.85530 814 ft 21 kts 60°
2026-05-01 11:10 34.75927 133.85576 812 ft 8 kts 341°
2026-05-01 11:11 34.75985 133.85534 812 ft 11 kts 331°
2026-05-01 11:11 34.76037 133.85498 813 ft 0 kts 330°